Weather in Verhneuralsk

Russia / Chelyabinsk Oblast     53°52′34″N   59°13′01″E
temp.,
°C
wind,
m/s
gust,
m/s
humid.,
%
clouds,
%
prec.,
mm/h
press.,
hPa
HPBL,
m
27 february, sat
sat2723:00−27ssw2310039 0.0 102621
02:00−28ssw33100100 0.0 102440
05:00−28ssw23100100 0.1 102229
08:00−26sse2599100 0.1 1019172
11:00−22sse3798100 0.7 1016420
14:00−16se4795100 1.5 1012530
17:00−11sse5893100 2.5 1010726
20:00−12se3896100 0.5 1008366
28 february, sun
sun2823:00−12ese2496100 1.5 1007154
02:00−13ene229699 0.2 100525
05:00−12ne2396100 0.6 100468
08:00−14nne339696 0.3 100358
11:00−11nne359598 0.9 1002242
14:00−9ne3594100 0.5 1002323
17:00−9ne4694100 1.1 1002348
20:00−11nne359697 0.3 1004105
1 march, mon
mon123:00−14nne339689 0.4 100859
02:00−15ne229695 0.1 101023
05:00−16ene119792 0.1 101221
08:00−17ene119795 0.2 101420
11:00−15e119296 0.3 1015221
14:00−13se1190100 0.2 1015278
17:00−13se2294100 0.5 1016225
20:00−15ese129797 0.3 101720
2 march, tue
tue223:00−17ene119799 0.4 101820
02:00−17wnw009795 0.1 101820
05:00−17w119797 0.1 101820
08:00−20w1110084 0.0 101820
11:00−16w119156 0.1 101799
14:00−13ssw23883 0.0 1016264
17:00−14s349624 0.0 1014121
20:00−17ssw349870 0.0 101538
3 march, wed
wed323:00−16sw239480 0.0 101422
02:00−16sw3390100 0.0 101349
05:00−17ssw3593100 0.0 101290
08:00−16ssw4797100 0.0 1010175
11:00−13ssw5896100 0.1 1009259
14:00−9ssw61093100 0.1 1007416
17:00−6s71193100 0.2 1006626
20:00−6s51295100 0.3 1004528